Location: ?ejeti?ky
(50.4060°N, 14.9016°E)
Time: 12:19:31
(UTC+00:00)

N. Korean satellite - Pass Details

Date: 04 December 2021
Orbit: 447 x 490 km, 97.3° (Epoch: 27 January)

Event Time Altitude Azimuth Distance (km) Brightness Sun altitude
Rises 04:47:46 0° 8° (N) 2,475 10.1 -17.4°
Reaches altitude 10° 04:49:51 10° 3° (N) 1,593 9.1 -17.1°
Maximum altitude 04:53:08 48° 288° (WNW) 599 6.5 -16.6°
Drops below altitude 10° 04:56:23 10° 213° (SSW) 1,573 9.0 -16.1°
Sets 04:58:27 0° 208° (SSW) 2,440 10.0 -15.8°
